Main page
METAR-TAF:

METAR-TAF

Airports :

RAF Boulmer

Boulmer, England

latitude: 55-25-19N, longitude: 1-36-12W, elevation: 24 m

Current weather observation

The report was made 1 hour and 7 minutes ago, at 17:50 UTC
Wind 11 kt from the North/Northwest
Temperature 12°C
Humidity 94%
Pressure 1024 hPa
Visibility: 6000 m
rain

METAR: EGQM 251750Z AUTO 34011KT 6000 RA FEW006/// 12/11 Q1024

Time: 19:57 (18:57 UTC)


TAF: missing

Weather observations and forecasts of more than 4000 airports (METAR and TAF reports).

The available stations are represented by yellow and red dots on the map.

Hover mouse over dot to see the name of the station.

Then click to see weather observations and forecasts.

To change the map : click on the green buttons with a black cross to zoom in, on the green button with a dash to zoom out, or on the green arrows for adjacent maps.


METAR-TAF: